Tracking 34747 objects as of 16-Jul-2026
HD Live streaming from Space Station
objects crossing your sky now

ONEWEB-0461

Track ONEWEB-0461 now!
10-day predictions
ONEWEB-0461 is classified as:


NORAD ID: 51649
Int'l Code: 2022-012AD
Perigee: 1,199.4 km
Apogee: 1,202.3 km
Inclination: 87.9 °
Period: 109.3 minutes
Semi major axis: 7571 km
RCS: Unknown
Launch date: February 10, 2022
Source: United Kingdom (UK)
Launch site: FRENCH GUIANA (FRGUI)
Your satellite tracking list
Your tracking list is empty




NASA's NSSDC Master Catalog

Two Line Element Set (TLE):
1 51649U 22012AD  26197.08482949  .00000064  00000-0  13076-3 0  9991
2 51649  87.9156   0.1103 0001933  90.2929 269.8424 13.17650750217690
Source of the keplerian elements: AFSPC